Location: Kernascl�den
(48.0062°N, 3.3198°W)
Time: 22:59:00
(UTC+00:00)

USA 229 - Pass Details

Date: 21 January 2021
Orbit: 964 x 1248 km, 63.4° (Epoch: 03 March)

Event Time Altitude Azimuth Distance (km) Brightness Sun altitude
Rises 18:53:47 0° 318° (NW) 3,916 7.1 -19.3°
Reaches altitude 10° 18:56:28 10° 323° (NW) 2,997 6.4 -19.7°
Maximum altitude 19:03:32 56° 41° (NE) 1,380 4.0 -20.9°
Enters shadow 19:06:43 34° 101° (E) 1,856 4.4 -21.4°
